Location: Newark
(35.6799°N, 139.7636°E)
Time: 12:46:51
(UTC+00:00)

Vanguard 1 Rocket - Pass Details

Date: 16 December 2019
Orbit: 650 x 4226 km, 34.3° (Epoch: 17 January)

Event Time Altitude Azimuth Distance (km) Brightness Sun altitude
Rises 12:09:00 0° 264° (W) 8,056 12.7 -55.9°
Reaches altitude 10° 12:15:08 10° 264° (W) 6,647 12.1 -57.1°
Enters shadow 12:28:13 46° 263° (W) 3,372 10.2 -59.7°
